FW3809 Weather Reports


Display with metric or nautical units.
time (UTC)temp
F
wind
direction
speed
MPH
gust
MPH
rain 1hr
in
rain 24hr
in
rain mn
in
humidity
%
barometer
mb
20260503221926 81 128 3.0 9.0 0.00 0.00 0.00 42 1018.2
20260503221401 81 150 5.0 10.0 0.00 0.00 0.00 41 1018.3
20260503220855 81 163 5.0 14.0 0.00 0.00 0.00 41 1018.1
20260503220352 81 162 5.0 14.0 0.00 0.00 0.00 41 1018.1
20260503215825 82 92 3.0 9.0 0.00 0.00 0.00 41 1018.1
20260503215301 83 134 3.0 8.0 0.00 0.00 0.00 41 1018.1
20260503214733 82 99 5.0 10.0 0.00 0.00 0.00 39 1018.1
20260503214233 82 128 4.0 10.0 0.00 0.00 0.00 39 1018.3
20260503213703 82 74 4.0 9.0 0.00 0.00 0.00 40 1018.5
20260503213200 83 104 3.0 8.0 0.00 0.00 0.00 39 1018.5
20260503212913 82 100 4.0 10.0 0.00 0.00 0.00 39 1018.6
20260503212416 82 106 3.0 10.0 0.00 0.00 0.00 41 1018.7
20260503212127 81 145 3.0 9.0 0.00 0.00 0.00 41 1018.8
20260503211103 82 166 3.0 10.0 0.00 0.00 0.00 40 1018.8
20260503210600 82 49 4.0 10.0 0.00 0.00 0.00 41 1018.8
20260503210031 81 66 6.0 10.0 0.00 0.00 0.00 41 1018.8
20260503205528 82 95 5.0 13.0 0.00 0.00 0.00 40 1018.9
20260503205002 82 58 3.0 13.0 0.00 0.00 0.00 40 1019.0
20260503204435 82 158 3.0 8.0 0.00 0.00 0.00 39 1019.1
20260503203932 82 145 4.0 8.0 0.00 0.00 0.00 39 1019.2
20260503203406 82 143 4.0 10.0 0.00 0.00 0.00 39 1019.2
20260503202855 83 143 4.0 9.0 0.00 0.00 0.00 39 1019.3
20260503202352 83 65 3.0 11.0 0.00 0.00 0.00 39 1019.5
20260503201825 83 100 3.0 11.0 0.00 0.00 0.00 39 1019.5
20260503201322 83 117 4.0 11.0 0.00 0.00 0.00 41 1019.6
20260503200819 83 152 5.0 13.0 0.00 0.00 0.00 39 1019.7
20260503200316 83 123 4.0 13.0 0.00 0.00 0.00 38 1019.8
20260503195751 83 100 3.0 10.0 0.00 0.00 0.00 39 1019.9
20260503195255 82 22 3.0 9.0 0.00 0.00 0.00 39 1019.9
20260503194728 81 60 6.0 14.0 0.00 0.00 0.00 40 1020.0
20260503194205 81 41 5.0 14.0 0.00 0.00 0.00 40 1020.1
20260503193701 81 99 3.0 10.0 0.00 0.00 0.00 42 1020.2
20260503193202 81 207 4.0 9.0 0.00 0.00 0.00 40 1020.1
20260503192642 81 226 6.0 11.0 0.00 0.00 0.00 40 1020.3
20260503192121 82 129 6.0 12.0 0.00 0.00 0.00 40 1020.4
20260503191621 82 155 5.0 12.0 0.00 0.00 0.00 39 1020.5
20260503191059 82 140 3.0 9.0 0.00 0.00 0.00 40 1020.5
20260503190815 81 156 3.0 9.0 0.00 0.00 0.00 42 1020.6
20260503190029 82 179 4.0 11.0 0.00 0.00 0.00 39 1020.7
20260503190021 81 231 4.0 9.0 0.00 0.00 0.00 39 1020.7
20260503185912 82 112 4.0 9.0 0.00 0.00 0.00 41 1020.9
20260503185754 83 62 4.0 9.0 0.00 0.00 0.00 39 1020.8
20260503185445 83 133 3.0 11.0 0.00 0.00 0.00 39 1020.8
20260503185226 82 113 4.0 9.0 0.00 0.00 0.00 41 1020.9
20260503183508 82 112 4.0 9.0 0.00 0.00 0.00 41 1020.9
20260503182943 82 62 4.0 11.0 0.00 0.00 0.00 39 1021.1
20260503182423 82 122 3.0 10.0 0.00 0.00 0.00 40 1021.1
20260503181920 82 92 2.0 9.0 0.00 0.00 0.00 40 1021.2
20260503181633 82 69 2.0 9.0 0.00 0.00 0.00 40 1021.3
20260503180902 81 116 4.0 9.0 0.00 0.00 0.00 40 1021.4
20260503180609 81 109 4.0 9.0 0.00 0.00 0.00 42 1021.4
20260503175814 81 88 5.0 10.0 0.00 0.00 0.00 41 1021.6
20260503175247 81 129 4.0 10.0 0.00 0.00 0.00 41 1021.7
20260503174744 80 73 3.0 6.0 0.00 0.00 0.00 42 1021.8
20260503174458 81 346 4.0 10.0 0.00 0.00 0.00 41 1021.9
20260503173651 81 120 3.0 10.0 0.00 0.00 0.00 43 1022.0
20260503173124 81 104 2.0 8.0 0.00 0.00 0.00 42 1022.1
20260503172621 81 74 3.0 8.0 0.00 0.00 0.00 41 1022.2
20260503172326 80 14 4.0 10.0 0.00 0.00 0.00 44 1022.4
20260503171531 79 66 4.0 10.0 0.00 0.00 0.00 44 1022.5
20260503171002 79 172 5.0 10.0 0.00 0.00 0.00 42 1022.4
20260503170500 80 160 3.0 10.0 0.00 0.00 0.00 42 1022.4
20260503160206 79 54 3.0 8.0 0.00 0.00 0.00 45 1022.5
20260503150909 76 200 3.0 8.0 0.00 0.00 0.00 52 1022.4
20260503150343 76 75 3.0 8.0 0.00 0.00 0.00 56 1022.3
20260503140122 71 41 0.0 2.0 0.00 0.00 0.00 72 1022.1
20260503131231 64 31 0.0 0.0 0.00 0.00 0.00 90 1021.8
20260503130435 63 31 0.0 0.0 0.00 0.00 0.00 92 1021.8
20260503120204 56 31 0.0 0.0 0.00 0.00 0.00 97 1021.3
20260503110545 56 31 0.0 0.0 0.00 0.00 0.00 96 1020.9
20260503100248 57 31 0.0 0.0 0.00 0.00 0.00 95 1020.4
20260503090346 58 31 0.0 0.0 0.00 0.00 0.00 94 1020.2
20260503081119 58 31 0.0 0.0 0.00 0.00 0.00 92 1020.5
20260503080616 58 31 0.0 0.0 0.00 0.00 0.00 92 1020.5
20260503072909 59 31 0.0 0.0 0.00 0.00 0.00 90 1020.3
20260503072408 59 31 0.0 1.0 0.00 0.00 0.00 90 1020.3
20260503071908 59 31 0.0 1.0 0.00 0.00 0.00 90 1020.3
20260503071626 59 31 0.0 0.0 0.00 0.00 0.00 89 1020.4
20260503070853 59 31 0.0 0.0 0.00 0.00 0.00 89 1020.4
20260503055110 62 31 0.0 1.0 0.00 0.00 0.00 83 1020.6
20260503054609 62 31 0.0 1.0 0.00 0.00 0.00 83 1020.5
20260503054043 62 31 0.0 1.0 0.00 0.00 0.00 82 1020.4
20260503053516 62 31 0.0 1.0 0.00 0.00 0.00 82 1020.3
20260503053014 62 31 0.0 1.0 0.00 0.00 0.00 82 1020.2
20260503052511 62 31 0.0 0.0 0.00 0.00 0.00 82 1020.2
20260503052008 62 31 0.0 0.0 0.00 0.00 0.00 81 1020.3
20260503051505 62 31 0.0 0.0 0.00 0.00 0.00 81 1020.3
20260503050940 62 31 0.0 0.0 0.00 0.00 0.00 81 1020.3
20260503050414 62 31 0.0 1.0 0.00 0.00 0.00 81 1020.2
20260503045911 63 31 0.0 1.0 0.00 0.00 0.00 81 1020.2
20260503045355 63 31 0.0 1.0 0.00 0.00 0.00 80 1020.2
20260503044819 63 31 0.0 1.0 0.00 0.00 0.00 80 1020.2
20260503044323 64 31 0.0 0.0 0.00 0.00 0.00 80 1020.0
20260503044319 63 31 0.0 1.0 0.00 0.00 0.00 79 1020.1
20260503043323 64 31 0.0 0.0 0.00 0.00 0.00 80 1020.0
20260503042753 64 31 0.0 1.0 0.00 0.00 0.00 79 1020.0
20260503042251 64 31 0.0 1.0 0.00 0.00 0.00 79 1020.0
20260503041736 64 31 0.0 1.0 0.00 0.00 0.00 78 1020.1
20260503041231 64 31 0.0 1.0 0.00 0.00 0.00 78 1020.2
20260503040708 64 31 0.0 1.0 0.00 0.00 0.00 78 1020.1
20260503040149 64 31 0.0 0.0 0.00 0.00 0.00 77 1020.1
20260503035650 64 31 0.0 1.0 0.00 0.00 0.00 76 1020.0
20260503035136 64 31 0.0 1.0 0.00 0.00 0.00 76 1019.9
20260503034633 65 31 0.0 0.0 0.00 0.00 0.00 76 1019.9
20260503034131 65 31 0.0 0.0 0.00 0.00 0.00 75 1019.8
20260503033843 65 31 0.0 0.0 0.00 0.00 0.00 74 1019.6
20260503033050 65 31 0.0 0.0 0.00 0.00 0.00 74 1019.6
20260503032530 65 31 0.0 0.0 0.00 0.00 0.00 73 1019.6
20260503032031 65 31 0.0 0.0 0.00 0.00 0.00 73 1019.5
20260503031506 66 31 0.0 0.0 0.00 0.00 0.00 72 1019.5
20260503031004 66 31 0.0 0.0 0.00 0.01 0.00 72 1019.5
20260503030502 66 31 0.0 0.0 0.00 0.01 0.00 72 1019.5
20260503030232 67 31 0.0 0.0 0.00 0.01 0.00 70 1019.5
20260503025440 67 31 0.0 0.0 0.00 0.01 0.00 69 1019.5
20260503024939 67 31 0.0 0.0 0.00 0.01 0.00 69 1019.5
20260503024434 67 31 0.0 0.0 0.00 0.01 0.00 68 1019.5
20260503023932 67 31 0.0 0.0 0.00 0.01 0.00 68 1019.4
20260503023405 68 31 0.0 0.0 0.00 0.01 0.00 68 1019.3
20260503022844 68 31 0.0 0.0 0.00 0.01 0.00 68 1019.3
20260503022313 68 31 0.0 0.0 0.00 0.01 0.00 66 1019.2
20260503021810 69 31 0.0 0.0 0.00 0.01 0.00 65 1019.2
20260503021306 69 31 0.0 0.0 0.00 0.02 0.00 65 1019.2
20260503021013 69 31 0.0 0.0 0.00 0.03 0.00 64 1019.2
20260503020236 70 31 0.0 0.0 0.00 0.03 0.00 62 1019.3
20260503015715 70 31 0.0 0.0 0.00 0.04 0.00 61 1019.1
20260503015151 71 31 0.0 1.0 0.00 0.04 0.00 60 1019.0
20260503014855 71 31 0.0 2.0 0.00 0.04 0.00 59 1018.8
20260503014050 71 31 1.0 3.0 0.00 0.04 0.00 58 1018.8
20260503013548 71 31 1.0 3.0 0.00 0.04 0.00 57 1018.7
20260503013252 72 31 1.0 4.0 0.00 0.05 0.00 56 1018.6
20260503012501 72 31 2.0 8.0 0.00 0.05 0.00 56 1018.6
20260503011951 72 35 2.0 5.0 0.00 0.06 0.00 56 1018.6
20260503011424 73 33 2.0 5.0 0.00 0.08 0.00 55 1018.6
20260503010925 73 34 3.0 8.0 0.00 0.09 0.00 54 1018.6
20260503010428 73 26 3.0 8.0 0.00 0.09 0.00 54 1018.5
20260503005916 73 14 3.0 8.0 0.00 0.09 0.00 54 1018.4
20260503005348 74 16 3.0 7.0 0.00 0.09 0.00 53 1018.3
20260503004845 74 4 3.0 8.0 0.00 0.09 0.00 52 1018.3
20260503004320 74 34 4.0 9.0 0.00 0.10 0.00 52 1018.2
20260503003752 75 50 5.0 10.0 0.00 0.10 0.00 51 1018.1
20260503003522 75 30 5.0 11.0 0.00 0.10 0.00 50 1018.0
20260503003001 76 16 5.0 14.0 0.00 0.10 0.00 50 1018.0
20260503002219 76 343 4.0 14.0 0.00 0.11 0.00 50 1018.0
20260503001651 76 49 4.0 11.0 0.00 0.12 0.00 50 1017.9
20260503001159 76 25 6.0 11.0 0.00 0.13 0.00 49 1017.9
20260503000623 76 28 7.0 15.0 0.00 0.15 0.00 49 1017.8
20260503000118 76 45 7.0 15.0 0.00 0.17 0.00 49 1017.8
20260502235553 77 21 6.0 14.0 0.00 0.19 0.00 48 1017.8
20260502235027 77 23 5.0 13.0 0.00 0.20 0.00 47 1017.7
20260502234523 77 27 5.0 13.0 0.00 0.21 0.00 47 1017.7
20260502234228 77 4 6.0 13.0 0.00 0.21 0.00 47 1017.7
20260502233453 77 354 7.0 15.0 0.00 0.22 0.00 48 1017.7
20260502232950 77 8 7.0 15.0 0.00 0.25 0.00 47 1017.7
20260502232447 77 41 6.0 16.0 0.00 0.25 0.00 47 1017.7
20260502231921 78 61 6.0 16.0 0.00 0.27 0.00 48 1017.7
20260502231416 77 4 7.0 13.0 0.00 0.29 0.00 47 1017.7
20260502230916 77 57 9.0 21.0 0.00 0.32 0.00 47 1017.7
20260502230346 77 36 8.0 21.0 0.00 0.32 0.00 47 1017.6
20260502225845 78 21 8.0 15.0 0.00 0.32 0.00 47 1017.5
20260502225323 78 37 8.0 18.0 0.00 0.32 0.00 47 1017.6
20260502225056 78 18 7.0 18.0 0.00 0.32 0.00 47 1017.6
20260502224526 78 19 6.0 14.0 0.00 0.32 0.00 47 1017.5
20260502223754 79 30 7.0 14.0 0.00 0.32 0.00 47 1017.5
20260502223250 79 9 7.0 13.0 0.00 0.32 0.00 48 1017.6
20260502223020 79 35 6.0 11.0 0.00 0.32 0.00 47 1017.6